Avalon, Australia

7:20 PM AEST on May 28, 2017 (GMT +1000)
Avalon

Weather History for YMAV - May, 2013

Change the Weather History Date:

Tuesday, May 28, 2013

  Actual Average Record
Temperature  
Mean Temperature 48 °F -  
Max Temperature 62 °F - - ()
Min Temperature 35 °F - - ()
Degree Days  
Heating Degree Days 16    
Moisture  
Dew Point 43 °F    
Average Humidity 85    
Maximum Humidity 100    
Minimum Humidity 44    
Precipitation  
Precipitation 0.01 in - - ()
Sea Level Pressure  
Sea Level Pressure 30.33 in    
Wind  
Wind Speed 5 mph ()    
Max Wind Speed 12 mph    
Max Gust Speed -    
Visibility 5.0 miles    
Events      
T = Trace of Precipitation, MM = Missing Value Source: Averaged Metar Reports

Daily Weather History Graph

Daily Weather History Graph

Search for Another Location

Airport or City:

Trip Planner

Search our weather history database for the weather conditions in past years. The results will help you decide how hot, cold, wet, or windy it might be!

Date:

Astronomy

May. 28, 2013 Rise Set
Actual Time 7:26 AM AEST 5:12 PM AEST
Civil Twilight 6:57 AM AEST 5:41 PM AEST
Nautical Twilight 6:24 AM AEST 6:13 PM AEST
Astronomical Twilight 5:53 AM AEST 6:45 PM AEST
Moon 8:40 PM AEST 10:06 AM AEST
Length of Visible Light 10h 44m
Length of Day
9h 46m
Waning Gibbous, 88% of the Moon is Illuminated
May 28
Waning Gibbous
Jun 1
Last Quarter
Jun 9
New
Jun 17
First Quarter
Jun 23
Full

Hourly Weather History & Observations

Time (AEST) Temp. Windchill Dew Point Humidity Pressure Visibility Wind Dir Wind Speed Gust Speed Precip Events Conditions
12:00 AM 42 °F - 42 °F 100% 30.41 in 6 mi NW 5.8 mph - -  
12:00 AM 42.8 °F 39.3 °F 42.8 °F 100% 30.39 in 5.6 mi NW 5.8 mph - N/A   Unknown
12:01 AM 42.8 °F 39.3 °F 42.8 °F 100% 30.39 in 5.6 mi NW 5.8 mph - N/A   Unknown
1:00 AM 41.0 °F 38.0 °F 41.0 °F 100% 30.39 in 3.1 mi NW 4.6 mph - N/A   Mostly Cloudy
1:15 AM 41.0 °F 37.1 °F 41.0 °F 100% 30.39 in 5.0 mi NW 5.8 mph - N/A   Mostly Cloudy
1:30 AM 41.0 °F 37.1 °F 41.0 °F 100% 30.39 in 6.2 mi NW 5.8 mph - N/A   Mostly Cloudy
2:00 AM 41.0 °F 37.1 °F 41.0 °F 100% 30.39 in 6.2 mi NW 5.8 mph - N/A   Unknown
2:31 AM 39.2 °F 35.9 °F 39.2 °F 100% 30.36 in 3.1 mi NNW 4.6 mph - N/A   Unknown
3:00 AM 38 °F - 38 °F 100% 30.38 in - NNW 6.9 mph - -  
3:00 AM 39.2 °F 34.2 °F 39.2 °F 100% 30.36 in 6.2 mi NNW 6.9 mph - N/A   Unknown
3:04 AM 37.4 °F 32.1 °F 37.4 °F 100% 30.36 in 6.2 mi North 6.9 mph - N/A   Unknown
3:30 AM 37.4 °F 33.8 °F 37.4 °F 100% 30.36 in 6.2 mi North 4.6 mph - N/A   Unknown
4:00 AM 37.4 °F 33.8 °F 37.4 °F 100% 30.36 in 6.2 mi North 4.6 mph - N/A   Unknown
4:32 AM 37.4 °F 33.8 °F 37.4 °F 100% 30.36 in - NW 4.6 mph - N/A   Unknown
5:00 AM 37.4 °F 33.8 °F 37.4 °F 100% 30.36 in 0.1 mi NW 4.6 mph - N/A   Scattered Clouds
5:30 AM 37.4 °F - 37.4 °F 100% 30.36 in 0.2 mi Calm Calm - N/A   Scattered Clouds
5:32 AM 37.4 °F - 37.4 °F 100% 30.36 in 0.1 mi Calm Calm - N/A   Mostly Cloudy
6:00 AM 37 °F - 37 °F 100% 30.37 in 0 mi Calm Calm - -  
6:00 AM 37.4 °F - 37.4 °F 100% 30.36 in 0.1 mi Calm Calm - N/A   Mostly Cloudy
6:30 AM 37.4 °F - 37.4 °F 100% 30.36 in 0.1 mi Calm Calm - N/A   Scattered Clouds
6:34 AM 37.4 °F - 37.4 °F 100% 30.36 in 0.1 mi Calm Calm - N/A   Scattered Clouds
7:00 AM 37.4 °F 32.8 °F 37.4 °F 100% 30.36 in 0.4 mi NNW 5.8 mph - N/A   Scattered Clouds
7:02 AM 37.4 °F 33.8 °F 37.4 °F 100% 30.36 in 0.7 mi NNW 4.6 mph - N/A   Scattered Clouds
7:30 AM 39.2 °F 37.0 °F 39.2 °F 100% 30.36 in 3.7 mi North 3.5 mph - N/A   Overcast
7:56 AM 39.2 °F 35.0 °F 39.2 °F 100% 30.39 in 5.6 mi NNW 5.8 mph - N/A   Overcast
8:00 AM 39.2 °F 35.0 °F 39.2 °F 100% 30.39 in 5.0 mi NNW 5.8 mph - N/A   Overcast
8:30 AM 41.0 °F 39.0 °F 41.0 °F 100% 30.39 in 6.2 mi NW 3.5 mph - N/A   Mostly Cloudy
9:00 AM 44 °F - 43 °F 97% 30.40 in - Calm Calm - -  
9:00 AM 42.8 °F - 42.8 °F 100% 30.39 in 6.2 mi Calm Calm - N/A   Mostly Cloudy
9:30 AM 46.4 °F - 46.4 °F 100% 30.39 in 6.2 mi Calm Calm - N/A   Overcast
10:00 AM 48.2 °F - 48.2 °F 100% 30.39 in 6.2 mi Calm Calm - N/A   Mostly Cloudy
10:30 AM 51.8 °F - 50.0 °F 94% 30.36 in 6.2 mi ENE 4.6 mph - N/A   Mostly Cloudy
11:00 AM 55.4 °F - 51.8 °F 88% 30.36 in 6.2 mi NNE 4.6 mph - N/A   Mostly Cloudy
11:30 AM 59.0 °F - 50.0 °F 72% 30.36 in 6.2 mi North 3.5 mph - N/A   Mostly Cloudy
12:00 PM 61 °F - 47 °F 50% 30.35 in - NE 5.8 mph - -  
12:00 PM 60.8 °F - 46.4 °F 59% 30.33 in 6.2 mi NE 5.8 mph - N/A   Scattered Clouds
12:30 PM 60.8 °F - 46.4 °F 59% 30.33 in 6.2 mi North 8.1 mph - N/A   Scattered Clouds
1:00 PM 62.6 °F - 46.4 °F 55% 30.30 in 6.2 mi North 4.6 mph - N/A   Mostly Cloudy
1:30 PM 59.0 °F - 48.2 °F 67% 30.30 in 6.2 mi ESE 11.5 mph - N/A   Scattered Clouds
2:00 PM 60.8 °F - 48.2 °F 63% 30.27 in 6.2 mi SSE 6.9 mph - N/A   Scattered Clouds
2:30 PM 62.6 °F - 48.2 °F 59% 30.27 in 6.2 mi SE 6.9 mph - N/A   Unknown
3:00 PM 62 °F - 46 °F 44% 30.28 in - SSE 8.1 mph - -  
3:00 PM 60.8 °F - 46.4 °F 59% 30.27 in 6.2 mi SSE 8.1 mph - N/A   Unknown
3:30 PM 60.8 °F - 46.4 °F 59% 30.27 in 6.2 mi SSE 8.1 mph - N/A   Unknown
4:00 PM 60.8 °F - 46.4 °F 59% 30.27 in 6.2 mi SSE 8.1 mph - N/A   Scattered Clouds
4:30 PM 60.8 °F - 46.4 °F 59% 30.27 in 6.2 mi ESE 4.6 mph - N/A   Scattered Clouds
5:00 PM 57.2 °F - 46.4 °F 67% 30.27 in 6.2 mi SE 4.6 mph - N/A   Mostly Cloudy
5:30 PM 55.4 °F - 46.4 °F 72% 30.27 in 6.2 mi East 4.6 mph - N/A   Overcast
6:00 PM 51 °F - 44 °F 69% 30.28 in - East 4.6 mph - -  
6:00 PM 51.8 °F - 44.6 °F 76% 30.27 in 6.2 mi East 4.6 mph - N/A   Mostly Cloudy
6:30 PM 53.6 °F - 46.4 °F 77% 30.27 in 6.2 mi NE 6.9 mph - N/A   Scattered Clouds
7:00 PM 55.4 °F - 44.6 °F 67% 30.27 in 6.2 mi NNE 10.4 mph - N/A   Unknown
7:30 PM 51.8 °F - 42.8 °F 71% 30.27 in 6.2 mi North 10.4 mph - N/A   Overcast
8:00 PM 53.6 °F - 44.6 °F 72% 30.27 in 6.2 mi NNW 9.2 mph - N/A   Mostly Cloudy
8:30 PM 51.8 °F - 44.6 °F 76% 30.27 in 6.2 mi North 8.1 mph - N/A   Mostly Cloudy
9:00 PM 50 °F - 44 °F 72% 30.30 in - NNE 5.8 mph - -  
9:00 PM 50.0 °F - 44.6 °F 82% 30.27 in 6.2 mi NNE 5.8 mph - N/A   Scattered Clouds
9:30 PM 50.0 °F - 42.8 °F 76% 30.27 in 6.2 mi NNE 6.9 mph - N/A   Unknown
10:00 PM 48.2 °F - 42.8 °F 82% 30.27 in 6.2 mi NE 8.1 mph - N/A   Unknown
10:30 PM 46.4 °F 41.9 °F 42.8 °F 87% 30.27 in 6.2 mi NE 9.2 mph - N/A   Unknown
11:00 PM 44.6 °F 42.2 °F 39.2 °F 81% 30.27 in 6.2 mi NNE 4.6 mph - N/A   Unknown